アトラス彗星

C/2024 A1 ( ATLAS )

English version
Home page
Updated on November 25, 2025

---------------------------------------------------------------------

・ プロフィール

発見日 2024年1月3日
発見光度 18.8等
発見者 Asteroid Terrestrial-Impact Last Alert System (ATLAS) search program

・ 写真集

・ 軌道要素

Epoch 2025 May 5.0 TT = JDT 2460800.5
T 2025 June 13.71797 TT                                 Pike
q   3.8752866            (2000.0)            P               Q
z  -0.0005585      Peri.  353.31301     -0.38263702     +0.02761388
 +/-0.0000010      Node   112.13675     +0.88712110     -0.26823152
e   1.0021644      Incl.   94.45698     +0.25807955     +0.96295863
From 1147 observations 2024 Jan. 3-2025 May 9, mean residual 0".5.

・ 星図

・ 光度変化

        m1 = 7.2 + 5 logΔ + 10.0 log r(t + 100)

---------------------------------------------------------------------

軌道要素はM.P.E.C. 2025-M120に掲載されたものです。
星図はステラナビゲータ Ver.11 (アストロアーツ) で作成したものです。
光度グラフはComet for Windowsで作成したものです。

---------------------------------------------------------------------

Copyright(C) Seiichi Yoshida (comet@aerith.net). All rights reserved.